Glasgow, United Kingdom

5:23 PM BST on May 22, 2017 (GMT +0100)
Glasgow

Weather History for EGPF - May, 2013

Change the Weather History Date:

Thursday, May 2, 2013

  Actual Average Record
Temperature  
Mean Temperature 44 °F -  
Max Temperature 55 °F 57 °F 69 °F (2007)
Min Temperature 32 °F 42 °F 26 °F (2015)
Degree Days  
Heating Degree Days 22    
Moisture  
Dew Point 37 °F    
Average Humidity 77    
Maximum Humidity 100    
Minimum Humidity 54    
Precipitation  
Precipitation 0.00 in - - ()
Sea Level Pressure  
Sea Level Pressure 30.17 in    
Wind  
Wind Speed 6 mph ()    
Max Wind Speed 21 mph    
Max Gust Speed -    
Visibility 6.0 miles    
Events Fog , Rain    
Averages and records for this station are not official NWS values.
T = Trace of Precipitation, MM = Missing Value Source: Averaged Metar Reports

Daily Weather History Graph

Daily Weather History Graph

Search for Another Location

Airport or City:

Trip Planner

Search our weather history database for the weather conditions in past years. The results will help you decide how hot, cold, wet, or windy it might be!

Date:

Astronomy

May. 02, 2013 Rise Set
Actual Time 5:31 AM BST 8:58 PM BST
Civil Twilight 4:47 AM BST 9:43 PM BST
Nautical Twilight 3:45 AM BST 10:46 PM BST
Astronomical Twilight 2:04 AM BST 12:35 AM BST
Moon 2:32 AM BST (5/2) 12:13 PM BST (5/2)
Length of Visible Light 16h 56m
Length of Day
15h 26m
Waning Gibbous, 50% of the Moon is Illuminated
May 2
Waning Gibbous
May 2
Last Quarter
May 10
New
May 18
First Quarter
May 25
Full

Hourly Weather History & Observations

Time (BST) Temp. Windchill Dew Point Humidity Pressure Visibility Wind Dir Wind Speed Gust Speed Precip Events Conditions
12:20 AM 35.6 °F 30.7 °F 32.0 °F 87% 30.27 in - SW 5.8 mph - N/A   Clear
12:50 AM 33.8 °F 27.7 °F 30.2 °F 87% 30.27 in - WSW 6.9 mph - N/A   Clear
1:20 AM 32.0 °F 26.4 °F 28.4 °F 87% 30.27 in - WSW 5.8 mph - N/A   Clear
1:50 AM 35.6 °F 32.8 °F 30.2 °F 81% 30.27 in - WSW 3.5 mph - N/A   Clear
2:20 AM 32.0 °F 27.5 °F 28.4 °F 87% 30.27 in - WSW 4.6 mph - N/A   Clear
2:50 AM 35.6 °F 32.8 °F 32.0 °F 87% 30.24 in - Variable 3.5 mph - N/A   Clear
3:20 AM 33.8 °F 30.8 °F 28.4 °F 81% 30.24 in 6.2 mi Variable 3.5 mph - N/A   Unknown
3:50 AM 33.8 °F - 30.2 °F 87% 30.24 in 6.2 mi Calm Calm - N/A   Unknown
4:20 AM 32.0 °F - 28.4 °F 87% 30.24 in 6.2 mi Variable 2.3 mph - N/A   Unknown
4:50 AM 32.0 °F - 28.4 °F 87% 30.24 in - Variable 2.3 mph - N/A   Clear
5:20 AM 32.0 °F - 30.2 °F 93% 30.24 in 6.2 mi Calm Calm - N/A Fog Shallow Fog
5:50 AM 32.0 °F - 32.0 °F 100% 30.24 in 6.2 mi North 2.3 mph - N/A Fog Shallow Fog
6:20 AM 32.0 °F - 30.2 °F 93% 30.24 in 6.2 mi Calm Calm - N/A Fog Shallow Fog
6:50 AM 32.0 °F - 30.2 °F 93% 30.24 in - Calm Calm - N/A   Clear
7:20 AM 33.8 °F 30.8 °F 32.0 °F 93% 30.24 in - Variable 3.5 mph - N/A   Clear
7:50 AM 37.4 °F 34.9 °F 35.6 °F 93% 30.24 in - Variable 3.5 mph - N/A   Clear
8:20 AM 39.2 °F 37.0 °F 35.6 °F 87% 30.24 in - Variable 3.5 mph - N/A   Clear
8:50 AM 41.0 °F - 35.6 °F 81% 30.24 in - Variable 2.3 mph - N/A   Clear
9:20 AM 41.0 °F - 33.8 °F 76% 30.24 in - Variable 2.3 mph - N/A   Clear
9:50 AM 42.8 °F - 35.6 °F 76% 30.24 in - Variable 2.3 mph - N/A   Clear
10:20 AM 44.6 °F - 35.6 °F 71% 30.24 in - Calm Calm - N/A   Clear
10:50 AM 46.4 °F 45.2 °F 35.6 °F 66% 30.24 in - Variable 3.5 mph - N/A   Clear
11:20 AM 46.4 °F 44.3 °F 35.6 °F 66% 30.24 in - WSW 4.6 mph - N/A   Clear
11:50 AM 48.2 °F - 33.8 °F 58% 30.21 in 6.2 mi SW 9.2 mph - N/A   Scattered Clouds
12:20 PM 50.0 °F - 33.8 °F 54% 30.21 in 6.2 mi South 10.4 mph - N/A   Overcast
12:50 PM 51.8 °F - 35.6 °F 54% 30.21 in 6.2 mi SSW 10.4 mph - N/A   Mostly Cloudy
1:20 PM 51.8 °F - 35.6 °F 54% 30.18 in 6.2 mi SSW 12.7 mph - N/A   Mostly Cloudy
1:50 PM 53.6 °F - 37.4 °F 54% 30.18 in 6.2 mi South 15.0 mph - N/A   Mostly Cloudy
2:20 PM 53.6 °F - 39.2 °F 58% 30.15 in 6.2 mi South 16.1 mph - N/A   Mostly Cloudy
2:50 PM 55.4 °F - 39.2 °F 54% 30.15 in 6.2 mi SSW 17.3 mph - N/A   Scattered Clouds
3:20 PM 55.4 °F - 39.2 °F 54% 30.12 in 6.2 mi SSW 18.4 mph - N/A   Scattered Clouds
3:50 PM 55.4 °F - 39.2 °F 54% 30.12 in 6.2 mi SSW 20.7 mph - N/A   Partly Cloudy
4:20 PM 55.4 °F - 39.2 °F 54% 30.12 in 6.2 mi SSW 20.7 mph - N/A   Partly Cloudy
4:50 PM 53.6 °F - 39.2 °F 58% 30.09 in - SSW 17.3 mph - N/A   Clear
5:20 PM 53.6 °F - 41.0 °F 62% 30.09 in 6.2 mi SW 13.8 mph - N/A   Mostly Cloudy
5:50 PM 51.8 °F - 42.8 °F 71% 30.09 in 6.2 mi SW 13.8 mph - N/A Rain Light Rain
6:20 PM 50.0 °F - 44.6 °F 82% 30.09 in 5.6 mi SW 11.5 mph - N/A Rain Light Rain
6:50 PM 50.0 °F - 44.6 °F 82% 30.06 in 6.2 mi SW 11.5 mph - N/A Rain Light Rain
7:20 PM 50.0 °F - 44.6 °F 82% 30.06 in 5.6 mi SW 13.8 mph - N/A Rain Light Rain
7:50 PM 50.0 °F - 44.6 °F 82% 30.06 in 5.6 mi SW 11.5 mph - N/A Rain Light Rain
8:20 PM 48.2 °F - 44.6 °F 87% 30.04 in 6.2 mi SW 9.2 mph - N/A Rain Light Rain
8:50 PM 48.2 °F - 44.6 °F 87% 30.04 in 5.0 mi SW 10.4 mph - N/A Rain Light Rain
9:20 PM 48.2 °F - 44.6 °F 87% 30.04 in 5.6 mi SW 10.4 mph - N/A Rain Light Rain
9:50 PM 48.2 °F - 44.6 °F 87% 30.04 in 5.6 mi SW 12.7 mph - N/A Rain Light Rain
10:20 PM 48.2 °F - 44.6 °F 87% 30.04 in 5.6 mi SW 15.0 mph - N/A Rain Light Rain
10:50 PM 48.2 °F - 44.6 °F 87% 30.01 in 6.2 mi SW 16.1 mph - N/A Rain Light Rain
11:20 PM 48.2 °F - 44.6 °F 87% 30.01 in 6.2 mi SW 16.1 mph - N/A   Scattered Clouds
11:50 PM 48.2 °F - 44.6 °F 87% 30.01 in 6.2 mi SW 15.0 mph - N/A   Scattered Clouds